EN

Hourly Weather Yasynuvatka

Today, 28 October, Wednesday

Time Temperature Precipitation Wind Pressure Humidity
00:00 +10°C° 0 mm 3 mps 755 mmHg 66%
01:00 +10°C° 0 mm 3 mps 755 mmHg 66%
02:00 +9°C° 0 mm 3 mps 755 mmHg 66%
03:00 +9°C° 0 mm 3 mps 755 mmHg 65%
04:00 +9°C° 0 mm 3 mps 755 mmHg 65%
05:00 +8°C° 0 mm 3 mps 754 mmHg 65%
06:00 +8°C° 0 mm 3 mps 755 mmHg 64%
07:00 +9°C° 0 mm 3 mps 755 mmHg 63%
08:00 +8°C° 0 mm 4 mps 755 mmHg 62%
09:00 +11°C° 0 mm 4 mps 755 mmHg 59%
10:00 +12°C° 0 mm 4 mps 755 mmHg 55%
11:00 +14°C° 0 mm 3 mps 755 mmHg 52%
12:00 +14°C° 0 mm 4 mps 755 mmHg 51%
13:00 +15°C° 0 mm 4 mps 754 mmHg 51%
14:00 +15°C° 0 mm 4 mps 754 mmHg 50%
15:00 +14°C° 0 mm 4 mps 754 mmHg 55%
16:00 +13°C° 0 mm 3 mps 754 mmHg 59%
17:00 +12°C° 0 mm 3 mps 754 mmHg 64%
18:00 +11°C° 0 mm 3 mps 754 mmHg 67%
19:00 +11°C° 0 mm 3 mps 754 mmHg 70%
20:00 +10°C° 0 mm 3 mps 754 mmHg 73%
21:00 +10°C° 0 mm 3 mps 754 mmHg 75%
22:00 +9°C° 0 mm 3 mps 754 mmHg 77%
23:00 +9°C° 0 mm 3 mps 753 mmHg 79%

Tomorrow, 29 October, Thursday

Time Temperature Precipitation Wind Pressure Humidity
00:00 +9°C° 0 mm 2 mps 753 mmHg 81%
01:00 +8°C° 0 mm 2 mps 753 mmHg 84%
02:00 +8°C° 0 mm 2 mps 753 mmHg 86%
03:00 +8°C° 0 mm 2 mps 753 mmHg 88%
04:00 +8°C° 0 mm 2 mps 753 mmHg 90%
05:00 +7°C° 0 mm 2 mps 753 mmHg 92%
06:00 +8°C° 0 mm 2 mps 752 mmHg 90%
07:00 +8°C° 0 mm 3 mps 752 mmHg 89%
08:00 +9°C° 0 mm 3 mps 752 mmHg 87%
09:00 +10°C° 0 mm 2 mps 752 mmHg 81%
10:00 +13°C° 0 mm 2 mps 752 mmHg 74%
11:00 +14°C° 0 mm 2 mps 752 mmHg 68%
12:00 +15°C° 0 mm 1 mps 752 mmHg 66%
13:00 +15°C° 0 mm 1 mps 751 mmHg 63%
14:00 +16°C° 0 mm 1 mps 751 mmHg 61%
15:00 +15°C° 0.1 mm 1 mps 751 mmHg 65%
16:00 +14°C° 0.1 mm 1 mps 751 mmHg 69%
17:00 +13°C° 0.1 mm 1 mps 751 mmHg 73%
18:00 +13°C° 0 mm 1 mps 751 mmHg 74%
19:00 +13°C° 0 mm 1 mps 751 mmHg 75%
20:00 +12°C° 0 mm 1 mps 751 mmHg 77%
21:00 +12°C° 0.1 mm 1 mps 751 mmHg 77%
22:00 +12°C° 0.1 mm 1 mps 750 mmHg 78%
23:00 +11°C° 0.1 mm 0 mps 750 mmHg 78%

Day after tomorrow, 30 October, Friday

Time Temperature Precipitation Wind Pressure Humidity
00:00 +12°C° 0.1 mm 1 mps 750 mmHg 80%
01:00 +12°C° 0.1 mm 1 mps 750 mmHg 82%
02:00 +11°C° 0.1 mm 1 mps 749 mmHg 83%
03:00 +11°C° 0 mm 1 mps 749 mmHg 84%
04:00 +11°C° 0 mm 1 mps 750 mmHg 84%
05:00 +11°C° 0 mm 1 mps 750 mmHg 85%
06:00 +11°C° 0 mm 1 mps 750 mmHg 84%
07:00 +11°C° 0 mm 1 mps 750 mmHg 82%
08:00 +11°C° 0 mm 1 mps 750 mmHg 81%
09:00 +12°C° 0 mm 1 mps 750 mmHg 75%
10:00 +14°C° 0 mm 2 mps 750 mmHg 70%
11:00 +15°C° 0 mm 2 mps 750 mmHg 64%
12:00 +15°C° 0 mm 2 mps 750 mmHg 62%
13:00 +16°C° 0 mm 2 mps 750 mmHg 61%
14:00 +16°C° 0 mm 3 mps 749 mmHg 59%
15:00 +14°C° 0 mm 3 mps 750 mmHg 64%
16:00 +14°C° 0 mm 2 mps 750 mmHg 69%
17:00 +13°C° 0 mm 2 mps 750 mmHg 74%
18:00 +13°C° 0 mm 2 mps 750 mmHg 76%
19:00 +12°C° 0 mm 2 mps 750 mmHg 79%
20:00 +12°C° 0 mm 2 mps 750 mmHg 81%
21:00 +12°C° 0 mm 2 mps 750 mmHg 83%
22:00 +12°C° 0 mm 2 mps 750 mmHg 84%
23:00 +12°C° 0 mm 2 mps 750 mmHg 86%

31 October, Saturday

Time Temperature Precipitation Wind Pressure Humidity
00:00 +10°C° 0 mm 2 mps 750 mmHg 87%
01:00 +10°C° 0 mm 3 mps 750 mmHg 87%
02:00 +10°C° 0 mm 3 mps 750 mmHg 88%
03:00 +10°C° 0 mm 2 mps 750 mmHg 89%
04:00 +10°C° 0 mm 2 mps 750 mmHg 89%
05:00 +9°C° 0 mm 2 mps 750 mmHg 90%
06:00 +10°C° 0 mm 3 mps 750 mmHg 89%
07:00 +10°C° 0 mm 3 mps 750 mmHg 89%
08:00 +10°C° 0 mm 3 mps 750 mmHg 88%
09:00 +10°C° 0 mm 3 mps 750 mmHg 86%
10:00 +11°C° 0 mm 3 mps 750 mmHg 83%
11:00 +11°C° 0 mm 4 mps 750 mmHg 80%
12:00 +11°C° 0 mm 4 mps 750 mmHg 78%
13:00 +12°C° 0 mm 4 mps 750 mmHg 76%
14:00 +12°C° 0 mm 4 mps 750 mmHg 73%
15:00 +12°C° 0.1 mm 3 mps 751 mmHg 76%
16:00 +11°C° 0.1 mm 3 mps 751 mmHg 78%
17:00 +11°C° 0.1 mm 3 mps 751 mmHg 81%
18:00 +11°C° 0 mm 3 mps 752 mmHg 79%
19:00 +11°C° 0 mm 4 mps 752 mmHg 78%
20:00 +11°C° 0 mm 4 mps 752 mmHg 76%
21:00 +10°C° 0 mm 4 mps 752 mmHg 77%
22:00 +10°C° 0 mm 4 mps 753 mmHg 78%
23:00 +8°C° 0 mm 4 mps 753 mmHg 78%

1 November, Sunday

Time Temperature Precipitation Wind Pressure Humidity
00:00 +8°C° 0 mm 4 mps 753 mmHg 82%
01:00 +8°C° 0 mm 4 mps 753 mmHg 86%
02:00 +7°C° 0 mm 4 mps 753 mmHg 90%
03:00 +8°C° 0.1 mm 4 mps 754 mmHg 90%
04:00 +8°C° 0.1 mm 4 mps 754 mmHg 89%
05:00 +8°C° 0.1 mm 5 mps 754 mmHg 89%
06:00 +8°C° 0.2 mm 5 mps 754 mmHg 87%
07:00 +8°C° 0.2 mm 5 mps 754 mmHg 86%
08:00 +8°C° 0.2 mm 5 mps 755 mmHg 85%
09:00 +8°C° 0.2 mm 5 mps 755 mmHg 85%
10:00 +8°C° 0.2 mm 5 mps 755 mmHg 84%
11:00 +8°C° 0.2 mm 6 mps 755 mmHg 84%
12:00 +8°C° 0.2 mm 6 mps 755 mmHg 84%
13:00 +8°C° 0.2 mm 5 mps 755 mmHg 83%
14:00 +8°C° 0.2 mm 5 mps 755 mmHg 83%
15:00 +8°C° 0.1 mm 5 mps 756 mmHg 83%
16:00 +8°C° 0.1 mm 5 mps 756 mmHg 84%
17:00 +8°C° 0.1 mm 5 mps 756 mmHg 84%
18:00 +8°C° 0 mm 5 mps 756 mmHg 84%
19:00 +8°C° 0 mm 5 mps 757 mmHg 84%
20:00 +8°C° 0 mm 5 mps 757 mmHg 83%
21:00 +7°C° 0 mm 4 mps 757 mmHg 85%
22:00 +7°C° 0 mm 4 mps 757 mmHg 87%
23:00 +8°C° 0 mm 3 mps 757 mmHg 89%

2 November, Monday

Time Temperature Precipitation Wind Pressure Humidity
00:00 +7°C° 0 mm 4 mps 758 mmHg 87%
01:00 +7°C° 0 mm 4 mps 758 mmHg 86%
02:00 +7°C° 0 mm 4 mps 758 mmHg 85%
03:00 +7°C° 0 mm 4 mps 758 mmHg 87%
04:00 +6°C° 0 mm 4 mps 758 mmHg 89%
05:00 +7°C° 0 mm 3 mps 758 mmHg 90%
06:00 +7°C° 0 mm 3 mps 758 mmHg 89%
07:00 +6°C° 0 mm 4 mps 759 mmHg 88%
08:00 +6°C° 0 mm 4 mps 759 mmHg 87%
09:00 +7°C° 0 mm 4 mps 759 mmHg 83%
10:00 +8°C° 0 mm 4 mps 759 mmHg 79%
11:00 +10°C° 0 mm 4 mps 759 mmHg 76%
12:00 +10°C° 0 mm 3 mps 759 mmHg 74%
13:00 +11°C° 0 mm 3 mps 759 mmHg 72%
14:00 +11°C° 0 mm 3 mps 759 mmHg 71%
15:00 +11°C° 0 mm 3 mps 759 mmHg 74%
16:00 +10°C° 0 mm 3 mps 759 mmHg 76%
17:00 +10°C° 0 mm 3 mps 759 mmHg 79%
18:00 +9°C° 0 mm 3 mps 759 mmHg 80%
19:00 +9°C° 0 mm 3 mps 760 mmHg 81%
20:00 +9°C° 0 mm 3 mps 760 mmHg 82%
21:00 +9°C° 0 mm 3 mps 760 mmHg 81%
22:00 +9°C° 0 mm 3 mps 760 mmHg 80%
23:00 +9°C° 0 mm 3 mps 760 mmHg 79%
Show more

We Need Your Consent

Meteoprog and our Service Providers may store and access personal data such as cookies, device identifiers or other similar technologies on your device and process such data to personalise content and ads, as well as provide social media features and to analyse the traffic.

  • Store and/or access information on your device

    Cookies, device identifiers or other information can be stored or accessed on your device for the purposes indicated above.

  • Personalised ads and content, ad and content measurement, audience insights, and products development

    Ads and content can be personalised based on a profile. More data can be added to better personalise ads and content. Ad and content performance can be measured. Insights about the audience who saw the ads and content can be derived. Such data can be used to develop or improve user’s experience, systems and software.

By clicking ‘I Agree’ you will allow the use of indicated cookies, device identifiers, web beacons or other similar technologies. Your settings can be changed in the browser on your device.

For certain purposes, legitimate interests may be relied on, rather than consent. You can read more about this in our Privacy and Cookie Policy.